SCP
0 0 0 0 0 0 0 0 0 0 0 0 0 0 0 0 0 0 0 0 0 0 0 0 0 0 0 0 0 0 0 0 0 0 0 0 0 0 0 0 0 0 0
0 0 0 0 0 0 0 0 0 0 0 0 0 0 0 0 0 0 0 0 0 0 0 0 0 0 0 0 0 0 0 0 0 0 0 0 0 0 0 0 0 0 0
0 0 0 0 0 0 0 0 0 0 0 0 0 0 0 0 0 0 0 0 0 0 0 0 0 0 0 0 0 0 0 0 0 0 0 0 0 0 0 0 0 0 0
0 0 0 0 0 0 0 0 0 0 0 0 0 0 0 0 0 0 0 0 0 0 0 0 0 0 0 0 0 0 0 0 0 0 0 0 0 0 0 0 0 0 0
0 0 0 0 0 0 0 0 0 0 0 0 0 0 0 0 0 0 0 0 0 0 0 0 0 0 0 0 0 0 0 0 0 0 0 0 0 0 0 0 0 0 0
0 0 0 0 0 0 0 0 0 0 0 0 0 0 0 0 0 0 0 0 0 0 0 0 0 0 0 0 0 0 0 0 0 0 0 0 0 0 0 0 0 0 0
0 0 0 0 0 0 0 0 0 0 0 0 0 0 0 0 0 0 0 0 0 0 0 0 0 0 0 0 0 0 0 0 0 0 0 0 0 0 0 0 0 0 0
0 0 0 0 0 0 0 0 0 0 0 0 0 0 0 0 0 0 0 0 0 0 0 0 0 0 0 0 0 0 0 0 0 0 0 0 0 0 0 0 0 0 0
0 0 0 0 0 0 0 0 0 0 0 0 0 0 0 0 0 0 0 0 0 0 0 0 0 0 0 0 0 0 0 0 0 0 0 0 0 0 0 0 0 0 0
0 0 0 0 0 0 0 0 0 0 0 0 0 0 0 0 0 0 0 0 0 0 0 0 0 0 0 0 0 0 0 0 0 0 0 0 0 0 0 0 0 0 0
0 0 0 0 0 0 0 0 0 0 0 0 0 0 0 0 0 0 0 0 0 0 0 0 0 0 0 0 0 0 0 0 0 0 0 0 0 0 0 0 0 0 0
0 0 0 0 0 0 0 0 0 0 0 0 0 0 0 0 0 0 0 0 0 0 0 0 0 0 0 0 0 0 0 0 0 0 0 0 0 0 0 0 0 0 0
0 0 0 0 0 0 0 0 0 0 0 0 0 0 0 0 0 0 0 0 0 0 0 0 0 0 0 0 0 0 0 0 0 0 0 0 0 0 0 0 0 0 0
0 0 0 0 0 0 0 0 0 0 0 0 0 0 0 0 0 0 0 0 0 0 0 0 0 0 0 0 0 0 0 0 0 0 0 0 0 0 0 0 0 0 0
0 0 0 0 0 0 0 0 0 0 0 0 0 0 0 0 0 0 0 0 0 0 0 0 0 0 0 0 0 0 0 0 0 0 0 0 0 0 0 0 0 0 0
0 0 0 0 0 0 0 0 0 0 0 0 0 0 0 0 0 0 0 0 0 0 0 0 0 0 0 0 0 0 0 0 0 0 0 0 0 0 0 0 0 0 0
0 0 0 0 0 0 0 0 0 0 0 0 0 0 0 0 0 0 0 0 0 0 0 0 0 0 0 0 0 0 0 0 0 0 0 0 0 0 0 0 0 0 0
0 0 0 0 0 0 0 0 0 0 0 0 0 0 0 0 0 0 0 0 0 0 0 0 0 0 0 0 0 0 0 0 0 0 0 0 0 0 0 0 0 0 0
0 0 0 0 0 0 0 0 0 0 0 0 0 0 0 0 0 0 0 0 0 0 0 0 0 0 0 0 0 0 0 0 0 0 0 0 0 0 0 0 0 0 0
0 0 0 0 0 0 0 0 0 0 0 0 0 0 0 0 0 0 0 0 0 0 0 0 0 0 0 0 0 0 0 0 0 0 0 0 0 0 0 0 0 0 0
0 0 0 0 0 0 0 0 0 0 0 0 0 0 0 0 0 0 0 0 0 0 0 0 0 0 0 0 0 0 0 0 0 0 0 0 0 0 0 0 0 0 0
0 0 0 0 0 0 0 0 0 0 0 0 0 0 0 0 0 0 0 0 0 0 0 0 0 0 0 0 0 0 0 0 0 0 0 0 0 0 0 0 0 0 0
0 0 0 0 0 0 0 0 0 0 0 0 0 0 0 0 0 0 0 0 0 0 0 0 0 0 0 0 0 0 0 0 0 0 0 0 0 0 0 0 0 0 0
0 0 0 0 0 0 0 0 0 0 0 0 0 0 0 0 0 0 0 0 0 0 0 0 0 0 0 0 0 0 0 0 0 0 0 0 0 0 0 0 0 0 0
0 0 0 0 0 0 0 0 0 0 0 0 0 0 0 0 0 0 0 0 0 0 0 0 0 0 0 0 0 0 0 0 0 0 0 0 0 0 0 0 0 0 0
0 0 0 0 0 0 0 0 0 0 0 0 0 0 0 0 0 0 0 0 0 0 0 0 0 0 0 0 0 0 0 0 0 0 0 0 0 0 0 0 0 0 0
Wind_Speed
1 0 0 1 1 1 1 2 1 1 1 1 1 1 1 1 1 1 2 1 2 2 2 3 4 3 3 3 3 3 3 4 6 5 3 3 4 5 5 4 4 5 6
1 1 1 1 0 1 1 2 1 1 1 1 1 1 1 1 1 1 2 2 3 3 3 3 4 3 4 3 3 4 4 4 5 7 5 4 4 4 4 5 5 5 5
0 1 0 0 0 1 2 1 1 1 1 1 1 2 2 2 2 2 2 3 3 4 4 4 4 4 5 4 4 4 4 4 4 5 6 4 4 4 4 5 5 4 5
0 0 0 1 1 2 2 1 1 1 1 1 2 2 2 2 3 3 3 3 4 4 4 4 5 5 5 5 4 4 4 4 4 5 6 5 4 4 3 4 5 3 5
0 1 2 1 1 1 1 1 1 1 1 2 2 2 3 3 3 3 3 3 4 4 4 5 5 6 7 6 4 4 4 4 4 4 5 5 5 4 4 3 5 5 5
1 2 1 1 1 1 1 1 1 2 2 2 2 3 3 3 5 6 4 4 4 5 5 5 5 5 6 8 8 8 6 5 5 5 5 6 6 5 4 4 4 5 5
1 1 1 1 1 1 1 1 1 2 2 2 3 3 4 5 7 7 7 5 4 4 5 4 4 4 4 4 6 8 7 8 8 6 7 7 6 5 4 5 5 5 6
1 2 1 1 2 2 1 2 2 1 2 2 3 4 4 6 7 7 6 4 4 4 4 4 5 5 4 5 4 5 5 5 6 5 6 7 6 5 5 5 6 6 6
2 2 2 2 2 2 2 2 2 2 2 2 3 3 4 5 6 6 5 3 3 5 5 4 4 5 7 8 5 5 6 5 6 7 8 9 10 10 6 3 4 4 6
3 3 2 2 3 3 3 2 2 2 2 2 3 3 4 4 6 6 5 2 4 4 4 4 5 7 8 8 4 4 6 6 4 5 6 7 6 6 8 5 4 4 5
2 2 2 2 2 2 2 2 2 2 2 2 3 3 3 4 6 7 6 3 3 4 4 3 3 7 9 9 7 4 7 6 4 4 4 4 4 3 4 3 4 4 5
1 2 2 2 2 1 1 2 1 1 2 3 3 4 3 3 4 6 8 7 6 4 4 3 4 8 9 9 7 7 9 6 3 3 3 4 4 4 3 3 4 4 5
2 2 2 1 1 1 1 2 1 1 2 2 2 3 4 3 4 7 8 8 8 5 4 6 7 8 8 6 7 8 5 2 2 3 4 5 4 4 4 3 4 4 5
3 3 2 2 1 1 1 1 2 2 2 3 3 4 4 3 3 3 3 4 5 5 3 4 7 7 6 5 4 4 3 2 3 4 4 4 4 3 3 3 4 4 4
3 2 2 2 2 1 1 2 3 3 3 4 3 3 3 4 5 6 4 3 3 3 2 2 2 2 3 3 3 3 3 3 3 4 4 5 5 4 4 3 3 3 4
3 3 2 2 1 1 1 2 3 4 5 6 6 5 4 6 8 8 8 8 7 5 2 1 2 3 3 4 4 4 3 3 3 4 4 4 5 5 5 4 3 4 5
4 3 2 2 2 2 2 2 3 3 4 6 7 7 7 8 8 8 8 8 6 4 1 2 3 3 4 3 3 4 4 4 3 4 4 4 5 5 4 4 4 4 4
3 3 3 2 2 2 2 2 2 2 3 4 5 7 8 8 8 7 7 5 3 3 3 4 4 4 4 4 4 4 4 4 3 4 4 4 4 4 5 5 4 5 5
3 2 2 2 2 2 2 2 2 3 3 3 3 4 5 7 7 6 4 2 3 4 4 4 4 4 4 4 4 4 4 4 4 4 4 5 4 4 5 5 5 6 5
2 2 2 1 1 2 2 2 3 3 3 3 4 4 3 2 2 3 2 3 4 4 4 4 4 4 4 5 4 4 4 5 5 5 5 5 4 5 6 6 5 5 5
2 2 2 2 2 2 2 3 3 3 3 4 4 5 5 3 3 4 4 4 4 5 5 5 5 5 5 4 4 5 6 5 5 5 5 5 5 5 5 5 5 5 5
2 2 2 2 2 2 2 2 3 3 4 4 4 4 6 3 4 4 4 4 4 4 4 4 5 5 5 5 5 5 6 6 5 5 5 5 5 5 5 5 5 5 5
2 2 2 2 2 2 2 2 3 3 3 4 4 3 3 3 4 4 5 4 4 4 4 4 5 5 5 5 5 6 7 7 6 5 5 5 5 5 4 5 5 5 5
2 2 2 2 2 2 3 3 3 3 4 4 4 4 4 4 4 5 5 4 4 4 4 4 5 7 8 6 5 5 6 7 6 6 7 6 6 5 5 5 5 6 6
2 2 2 3 3 3 3 3 3 3 4 4 4 4 4 4 5 5 5 4 5 5 6 6 5 6 8 9 8 7 9 11 9 6 6 6 7 6 6 6 5 5 6
2 2 2 2 3 3 3 3 4 4 4 4 4 4 4 5 5 5 5 5 5 5 6 6 6 7 8 7 9 10 11 11 10 9 6 5 6 6 6 5 6 6 6
Wind_Direction
253 230 230 225 220 203 212 240 239 243 243 245 243 240 258 266 248 239 256 265 258 268 266 260 266 263 256 256 254 254 254 251 263 280 276 286 280 283 294 291 284 282 285
207 183 223 237 212 211 234 253 249 251 257 252 253 255 257 258 255 250 262 272 266 266 268 267 270 267 259 257 251 253 255 252 257 278 289 288 277 278 286 288 289 288 287
176 184 268 307 275 250 252 254 255 257 271 277 250 248 255 257 257 257 255 267 269 267 266 267 268 266 267 265 259 260 262 263 258 269 284 285 281 283 292 291 286 285 289
187 180 280 288 278 263 262 267 262 262 261 260 260 260 263 260 257 261 265 271 271 274 272 269 268 261 262 266 261 260 263 266 267 268 278 282 281 280 278 291 299 293 292
218 247 264 282 292 270 261 276 280 267 264 265 267 271 270 263 261 267 267 269 271 276 276 272 273 268 265 265 263 257 252 257 265 269 276 283 283 288 287 291 292 302 290
215 250 282 315 324 318 275 279 282 274 270 260 256 262 268 269 276 274 275 272 271 272 277 278 277 273 278 281 280 276 266 260 263 267 274 274 280 283 287 287 291 298 293
228 262 291 299 302 307 318 298 277 275 275 270 269 268 271 274 280 283 280 275 272 271 275 282 285 285 280 281 286 289 285 278 267 261 268 269 273 275 278 282 277 277 276
240 265 280 286 292 307 301 288 285 282 272 272 274 267 270 275 283 288 292 276 270 271 272 273 279 287 285 286 285 284 282 283 279 269 265 270 273 273 258 264 272 278 278
240 251 255 247 259 274 278 281 285 282 278 275 277 273 276 284 288 291 296 276 273 276 273 270 272 279 289 292 288 287 293 293 297 291 286 289 292 293 292 290 284 285 287
241 248 247 238 241 251 260 272 280 275 276 285 288 282 278 283 292 294 296 278 280 282 282 278 275 282 291 292 281 281 289 295 303 307 299 297 297 295 292 274 264 265 278
236 243 248 247 245 250 260 274 281 283 292 291 288 289 283 282 292 295 293 286 279 286 288 286 283 292 296 296 292 277 281 295 297 295 295 296 295 288 283 276 266 258 259
205 226 243 251 253 255 256 280 288 280 283 288 293 296 290 287 289 293 293 289 293 283 283 286 290 299 300 301 298 294 298 302 296 290 291 294 291 286 285 282 274 265 260
209 230 241 253 259 256 245 259 279 267 265 276 279 284 291 291 292 294 293 293 295 288 286 297 307 310 310 309 307 310 312 303 291 288 287 288 286 282 284 284 281 275 273
216 232 232 233 252 262 252 239 241 245 252 260 266 275 286 293 287 289 286 294 295 290 297 310 313 312 313 317 323 322 319 307 289 281 287 290 296 294 287 284 286 292 289
216 223 230 238 240 246 250 249 249 246 239 251 256 259 276 286 291 296 301 295 291 289 318 327 331 326 316 315 314 311 311 311 303 299 293 296 295 292 289 292 284 283 276
212 218 218 224 235 238 254 291 278 269 282 279 277 277 278 284 303 304 302 301 303 304 313 287 292 291 289 296 300 303 303 297 295 294 292 292 293 296 297 292 283 278 279
215 219 215 218 225 232 239 252 284 305 297 293 290 291 291 295 298 302 303 302 301 306 273 266 269 272 275 279 281 283 286 285 284 280 280 284 288 289 292 291 285 283 284
218 221 217 219 222 226 232 243 253 271 297 302 299 297 299 302 301 302 307 311 300 288 255 258 262 265 266 267 269 272 277 280 275 274 274 276 277 280 282 277 276 275 279
210 218 218 223 223 225 230 238 246 251 264 284 300 304 304 305 306 304 308 266 264 267 260 258 258 259 261 261 264 265 266 269 269 269 269 269 269 270 274 272 273 277 279
215 221 213 214 224 232 236 241 250 256 265 274 278 284 297 302 295 294 273 255 257 263 263 261 260 257 257 259 261 261 265 266 267 265 265 265 264 263 268 271 270 272 274
208 211 210 216 224 230 237 245 252 258 265 270 272 276 283 275 273 275 271 262 257 261 263 262 261 260 257 255 256 258 259 262 260 261 263 263 262 264 265 266 267 268 272
199 205 209 222 231 235 243 247 253 258 261 268 282 289 289 282 273 272 271 269 264 261 261 259 261 259 254 252 252 256 260 262 258 256 260 263 263 263 261 263 265 268 270
199 210 224 235 238 244 250 252 254 260 269 275 279 281 278 272 275 277 278 279 279 277 271 258 260 264 258 253 249 248 253 256 255 252 256 262 264 262 259 260 262 267 269
203 211 224 235 240 243 248 256 259 265 271 274 276 277 276 273 273 276 277 277 278 276 270 263 260 263 266 266 260 253 252 257 256 250 243 247 255 257 255 257 258 259 264
211 218 226 233 239 246 252 259 262 264 268 272 273 276 279 282 281 280 278 276 278 278 277 273 267 267 267 267 267 265 264 267 264 255 245 241 244 247 249 251 255 262 261
222 227 235 239 243 247 252 260 266 268 269 273 275 277 280 281 282 284 285 282 284 283 281 278 273 274 275 272 270 273 273 272 265 254 241 239 240 245 245 248 250 255 260